STARLINK-11497, 62470

Orbit data source: Space-Track

STARLINK-11497, 62470 is a payload satellite owned by SpaceX/Seattle (US) in LEO that was launched on Tue, 31 Dec 2024 UTC via an FALCON 9 launch vehicle from the Air Force Eastern Test Range (AFETR). Payload-class satellites include a variety of spacecraft equipped with specific instruments for various scientific and technological missions. These include communications satellites like Starlink; space stations such as the ISS; scientific satellites like the Hubble; Earth observation satellites from companies like Planet Labs, Umbra, and HawkEye 360; GPS; miniature CubeSats for education and research; and military/defense satellites.

Loading next visibility...
Identifier
62470, 2024-254J
Orbit
LEO
Country
Flag of USUS
Related business
Manufacturer
SpaceX/Seattle
Mission
Operational Commercial Communications
Bus & Motor
STARLINK V2MD, Unknown motor
Mass
960 kg wet, ~910 kg dry
Launch date (UTC)
2024-12-31 (2 years ago)
Launch vehicle
FALCON 9
Launch site
Air Force Eastern Test Range (AFETR)
Object type
Payload
Rocket body
Debris
Shape & HBR
Box + 2 Pan, 18.1 m
Radar Cross Section
36.964 m², Large (>1 m²)

Expand to show TLE details & history
Last TLE update: 8 hours ago

TLE from 8 hours ago
0 STARLINK-11497
1 62470U 24254J   26258.12578699  .00173885  00000-0  13263-2 0  9995
2 62470  43.0049 161.2078 0003868 262.3543  97.6886 15.70909629 99196
Epoch: 2026-09-15T03:01Z
TLE epoch observation values (Epoch: 2026-09-15T03:01:07.995Z)
Latitude
-0°
Longitude
121.82827°
Altitude
356.417 km
Speed
7.697 km/s
True Right ascension
10h 44m 49s
True Declination
0° 00' 00"
Sunlit
Object was in daylight at epoch
Visualization orbit readout
Latitude
Unknown
Longitude
Unknown
Altitude
Unknown
Speed
Unknown
Apparent Right ascension
Unknown
Apparent Declination
Unknown
Sunlit
N/A
Visualization observer readout
Local Sidereal Time
03:45:23
Azimuth
Unknown
Elevation
Unknown
Doppler factor
Unknown
Orbital elements
Apogee altitude
360.883 km
Perigee altitude
355.671 km
Semi-major axis
6,736.414 km
Eccentricity
0.00039
Inclination
43.0049°
RAAN
161.2078°
Arg. of periapsis
262.3543°
True anomaly
97.73252°
Mean anomaly
97.6886°
Eccentric anomaly
97.71056°
Mean motion
3.92555 °/min
Orbital period
91.71 mins
BSTAR
0.0013263
Loading maneuver chart data...
Computing Atmospheric mass density...
Loading historical data...
Loading historical data...
Loading historical data...
Loading historical data...
Loading historical data...
Loading historical data...
Loading historical data...

Documentation

Showing up to 5 results
|